User: anonymous   Login
Location: Unspecified
(0.0000°N, 0.0000°E)
Time: 23:34:26
(UTC+00:00)
Language:

FORMOSAT 3B - Orbit

View from above orbital plane
View from above orbital plane
View from above satellite
View from above satellite

Ground track
Ground track

The orbit data is extracted from the following two-line orbital elements,

1 29048U 06011B   18142.36515600 +.00000029 +00000-0 +27871-4 0  9993
2 29048 071.9653 126.8602 0045772 244.6660 114.9732 14.28572003635681
Epoch (UTC): 22 May 2018 08:45:49
Eccentricity: 0.0045772
inclination: 71.9653°
perigee height: 763 km
apogee height: 829 km
right ascension of ascending node: 126.8602°
argument of perigee: 244.6660°
revolutions per day: 14.28572003
mean anomaly at epoch: 114.9732°
orbit number at epoch: 63568

The dashed part of the orbit path shows where the satellite is in the earth's shadow,  

DLR